Location: Bermeries
(50.2863°N, 3.7551°E)
Time: 12:15:55
(UTC+00:00)

CZ-2D R/B - Pass Details

Date: 23 May 2024
Orbit: 791 x 843 km, 98.8° (Epoch: 14 June)

Event Time Altitude Azimuth Distance (km) Brightness Sun altitude
Rises 01:50:13 0° 15° (NNE) 3,414 7.0 -13.6°
Reaches altitude 10° 01:52:37 10° 17° (NNE) 2,473 6.0 -13.4°
Maximum altitude 01:58:07 79° 104° (ESE) 861 2.3 -12.9°
Enters shadow 02:02:43 15° 191° (S) 2,116 3.7 -12.5°
